Forside
METAR-TAF:

METAR-TAF

Lufthavne :

Princeton Municipal Airport

Princeton, Minnesota, USA

Breddekreds: 45-33N, længdekreds: 093-36W, højde: 298 m

Aktuelle vejr

Denne rapport blev lavet for 12 minutter siden, kl. 07:35 UTC
Vind 3 kt fra vestsydvest
Temperatur 4°C
Fugtighed 60%
Tryk 1011 hPa
Sigt: 16.1 km
skyfri

METAR: KPNM 290735Z AUTO 25003KT 10SM CLR 04/M03 A2984 RMK AO2

Tid: 01:47 (07:47 UTC)


TAF: fraværende

Vejrobservationer og prognoser fra mere end 4000 lufthavne (METAR og TAF).

De gule og røde prikker repræsenterer de meteorologiske stationer.

Flyt musen over at se navnet på stationen.

Så klik over at se vejr observationer og prognoser.

At skifte det kort: Klik på de grønne knapper med et sort kors for at zoome ind; på den grønne knap med en bindestreg for at zoome ud; eller på de grønne pile for tilstødende kort.


METAR-TAF: